SCP
0 0 0 0 0 0 0 0 0 0 0 0 0 0 0 0 0 0 0 0 -0 -0 0 0 0 0 0 0 0 0 0 0 0 0 0 0 0 0 0 0 0 0 0
0 0 0 0 0 0 0 0 0 0 0 0 0 0 0 0 0 0 0 0 0 -0 -0 0 0 0 0 0 0 0 0 0 0 0 0 0 0 0 0 0 0 0 0
0 0 0 0 0 0 0 0 0 0 0 0 0 0 0 0 0 0 0 0 0 0 0 0 0 0 0 0 0 0 0 0 0 0 0 0 0 0 0 0 0 0 0
0 0 0 0 0 0 0 0 0 0 0 0 0 0 0 0 0 0 0 0 0 0 0 0 0 0 0 0 0 0 0 0 0 0 0 0 0 0 0 0 0 0 0
0 0 0 0 0 0 0 0 0 0 0 0 0 0 0 0 0 0 0 0 0 0 0 0 0 0 0 0 0 0 0 0 0 0 0 0 0 0 0 0 0 0 0
0 0 0 0 0 0 0 0 0 0 0 0 0 0 0 0 0 0 0 0 0 0 0 0 0 0 0 0 0 0 0 0 0 0 0 0 0 0 0 0 0 0 0
0 0 0 0 0 0 0 0 0 0 0 0 0 0 0 0 0 0 0 0 0 0 0 0 0 0 0 0 0 0 0 0 0 0 0 0 0 0 0 0 0 0 0
0 0 0 0 0 0 0 0 0 0 0 0 0 0 0 0 0 0 0 0 0 0 0 0 0 0 0 0 0 0 0 0 0 0 0 0 0 0 0 0 0 0 0
0 0 0 0 0 0 0 0 0 0 0 0 0 0 0 0 0 0 0 0 0 0 0 0 0 0 0 0 0 0 0 0 0 0 0 0 0 0 0 0 0 0 0
0 0 0 0 0 0 0 0 0 0 0 0 0 0 0 0 0 0 0 0 0 0 0 0 0 0 0 0 0 0 0 0 0 0 0 0 0 0 0 0 0 0 0
0 0 0 0 0 0 0 0 0 0 0 0 0 0 0 0 0 0 0 0 0 0 0 0 0 0 0 0 0 0 0 0 0 0 0 0 0 0 0 0 0 0 0
0 0 0 0 0 0 0 0 0 0 0 0 0 0 0 0 0 0 0 0 0 0 0 0 0 0 0 0 0 0 0 0 0 0 0 0 0 0 0 0 0 0 0
0 0 0 0 0 0 0 0 0 0 0 0 0 0 0 -0 0 0 0 0 0 0 0 0 0 0 0 0 0 0 0 0 0 0 0 0 0 0 0 0 0 0 0
0 0 0 0 0 0 0 0 0 0 0 0 0 0 0 0 0 0 0 0 0 0 0 0 0 0 0 0 0 0 0 0 0 0 0 0 0 0 0 0 0 0 0
0 0 0 0 0 0 0 0 0 0 0 0 0 0 0 0 0 0 0 0 0 0 0 0 0 0 0 0 0 0 0 0 0 0 0 0 0 0 0 0 0 0 0
0 0 0 0 0 0 0 0 0 0 0 0 0 0 0 0 0 0 0 0 0 0 0 0 0 0 0 0 0 0 0 0 0 0 0 0 0 0 0 0 0 0 0
0 0 0 0 0 0 0 0 0 0 0 0 0 0 0 0 0 0 0 0 0 0 0 0 0 0 0 0 0 0 0 0 0 0 0 0 0 0 0 0 0 0 0
0 0 0 0 0 0 0 0 0 0 0 0 0 0 0 0 0 0 0 0 0 0 0 0 0 0 0 0 0 0 0 0 0 0 0 0 0 0 0 0 0 0 0
0 0 0 0 0 0 0 0 0 0 0 0 0 0 0 0 0 0 0 0 0 0 0 0 0 0 0 0 0 0 0 0 0 0 0 0 0 0 0 0 0 0 0
0 0 0 0 0 0 0 0 0 0 0 0 0 0 0 0 0 0 0 0 0 0 0 0 0 0 0 0 0 0 0 0 0 0 0 0 0 0 0 0 0 0 0
0 0 0 0 0 0 0 0 0 0 0 0 0 0 0 0 0 0 0 0 0 0 0 0 0 0 0 0 0 0 0 0 0 0 0 0 0 0 0 0 0 0 0
0 0 0 0 0 0 0 0 0 0 0 0 0 0 0 0 0 0 0 0 0 0 0 0 0 0 0 0 0 0 0 0 0 0 0 0 0 0 0 0 0 0 0
0 0 0 0 0 0 0 0 0 0 0 0 0 0 0 0 0 0 0 0 0 0 0 0 0 0 0 0 0 0 0 0 0 0 0 0 0 0 0 0 0 0 0
0 0 0 0 0 0 0 0 0 0 0 0 0 0 0 0 0 0 0 0 0 0 0 0 0 0 0 0 0 0 0 0 0 0 0 0 0 0 0 0 0 0 0
0 0 0 0 0 0 0 0 0 0 0 0 0 0 0 0 0 0 0 0 0 0 0 0 0 0 0 0 0 0 0 0 0 0 0 0 0 0 0 0 0 0 0
0 0 0 0 0 0 0 0 0 0 0 0 0 0 0 0 0 0 0 0 0 0 0 0 0 0 0 0 0 0 0 0 0 0 0 0 0 0 0 0 0 0 0
Wind_Speed
4 3 3 3 3 3 3 4 4 3 3 3 3 3 3 3 2 2 3 3 3 3 3 4 4 3 2 2 2 2 3 3 5 4 3 2 3 4 4 3 4 4 4
4 4 3 3 3 3 3 3 3 3 3 3 3 3 3 3 3 4 4 4 4 5 4 4 4 3 3 3 3 4 4 4 4 6 3 3 4 4 4 4 4 4 4
4 4 3 3 3 3 3 3 3 3 3 3 3 3 4 4 4 4 4 4 5 5 5 5 5 4 5 4 4 4 4 4 4 4 4 3 3 3 3 4 4 3 4
4 4 4 4 4 4 3 3 3 3 3 3 3 3 4 3 3 4 4 4 4 4 5 5 5 5 6 5 5 5 4 4 3 3 4 3 3 3 2 3 4 3 4
5 5 5 4 3 3 3 3 2 3 3 3 3 3 3 3 3 4 4 4 4 4 4 5 5 7 8 7 5 5 4 4 3 3 4 3 4 3 3 2 4 4 4
5 5 4 3 3 3 3 2 2 2 2 2 2 3 3 3 5 6 4 3 4 4 4 4 4 5 7 9 10 9 7 6 5 4 4 5 6 4 3 3 3 3 4
5 4 4 4 4 3 3 2 2 2 2 2 2 2 3 4 6 6 6 3 3 4 4 4 4 4 5 4 6 8 8 10 10 6 6 7 6 5 4 4 4 5 5
4 4 4 4 4 3 2 2 2 1 2 2 2 3 3 4 6 6 6 3 3 4 4 5 5 5 5 4 4 4 5 5 7 5 6 6 6 5 5 5 5 5 4
5 5 5 5 4 3 3 3 2 1 1 2 2 2 3 4 6 6 5 2 3 4 4 4 4 5 8 8 4 4 5 5 7 8 9 9 11 11 7 3 2 3 5
5 5 4 4 4 4 4 3 2 2 2 2 2 2 3 4 6 6 4 2 2 3 3 3 6 6 8 8 4 4 5 5 4 4 5 7 6 7 9 5 4 4 4
4 3 3 4 4 4 3 2 2 1 1 1 2 3 3 4 6 6 5 2 3 3 3 3 3 7 8 9 7 4 7 6 4 4 4 4 3 3 4 4 4 4 5
3 4 4 3 3 3 3 2 2 2 1 2 2 3 2 3 4 5 7 6 5 3 3 3 4 8 9 9 7 7 10 8 3 3 3 3 3 4 4 4 5 5 6
4 4 3 3 2 3 3 3 2 2 2 2 2 3 3 2 3 6 7 7 7 3 3 6 7 9 8 6 7 9 7 3 2 3 4 4 3 4 3 3 3 4 5
5 4 3 3 3 2 2 3 3 3 3 2 3 3 3 3 3 3 3 3 5 4 3 5 8 8 6 6 5 4 3 3 3 4 4 3 3 3 3 3 3 3 4
5 4 3 3 3 3 3 3 4 4 4 4 4 3 3 4 5 6 4 3 3 3 3 1 1 2 2 2 2 3 3 3 3 3 3 3 3 3 3 3 3 3 4
4 4 4 3 3 3 2 2 4 5 7 7 7 5 5 7 8 8 8 8 7 7 3 2 3 3 3 3 3 3 3 3 3 3 3 4 4 4 4 3 3 4 5
5 5 4 3 3 3 3 3 2 3 4 6 6 7 7 7 8 7 8 7 7 6 3 3 3 4 4 4 4 4 4 4 3 4 4 4 4 4 4 4 4 4 5
5 5 5 4 4 3 3 3 3 3 3 3 4 6 7 8 7 7 7 5 3 3 2 3 4 4 4 4 4 4 4 4 3 4 4 4 4 4 5 5 4 5 5
4 3 3 3 3 3 3 3 3 3 3 3 3 4 6 6 7 7 5 2 3 4 3 4 4 4 4 4 4 4 4 4 4 4 4 4 4 4 5 5 5 7 6
3 5 4 3 3 3 3 3 3 3 3 3 4 3 2 2 2 3 3 3 3 4 4 4 4 4 4 4 4 4 4 5 5 5 4 4 4 5 6 6 5 5 5
3 3 4 3 3 3 3 3 3 3 4 4 4 4 6 3 3 4 4 4 4 4 4 4 4 4 4 4 4 5 6 5 5 5 5 5 5 5 5 5 5 5 5
3 3 3 3 3 3 3 3 3 3 4 4 4 4 8 4 3 4 4 4 4 4 4 4 4 4 4 4 5 5 5 6 5 5 5 5 5 5 5 5 5 5 4
3 3 3 2 2 4 3 3 3 3 4 4 4 4 3 3 4 4 5 4 4 4 4 4 5 4 4 4 5 5 6 6 5 5 5 5 5 5 5 5 6 5 5
3 3 3 3 2 3 3 3 3 3 4 4 4 4 4 4 4 5 5 4 4 4 4 4 5 6 7 6 5 5 5 6 6 5 7 6 6 5 5 5 5 5 5
3 3 3 3 3 3 3 3 3 4 4 4 4 4 4 4 4 5 4 4 5 5 6 5 5 5 7 8 7 6 8 11 10 6 5 5 6 6 6 6 5 5 5
3 3 3 3 3 3 3 4 4 4 4 4 4 4 4 4 4 4 4 4 4 5 5 5 5 6 7 6 7 9 11 12 12 11 7 5 6 6 5 5 5 5 5
Wind_Direction
192 193 190 197 198 192 194 207 210 211 205 205 207 203 209 216 211 206 221 219 222 235 231 221 232 226 221 223 212 209 208 198 238 267 253 262 259 262 281 273 268 267 278
191 186 193 194 191 197 210 212 205 207 211 211 206 207 215 218 214 213 225 224 223 231 236 230 240 234 231 227 219 221 221 212 220 257 268 259 254 254 259 267 271 267 263
184 182 188 190 195 209 217 213 202 200 209 213 208 214 221 222 220 222 223 228 229 231 231 230 235 227 236 232 229 230 231 228 216 236 262 257 266 267 272 273 270 274 275
183 182 191 199 202 207 209 205 204 199 205 217 224 225 225 225 225 230 227 232 236 237 236 234 235 229 234 233 234 233 229 230 223 233 254 263 262 263 253 268 286 277 280
183 190 201 201 196 192 198 205 206 207 214 217 224 235 233 228 229 228 225 228 232 246 250 245 242 242 243 242 238 228 219 226 229 237 250 260 261 260 255 249 270 288 283
187 198 196 186 185 190 200 200 202 217 223 216 223 231 239 242 241 238 229 224 230 239 254 258 257 254 257 262 262 253 230 221 225 234 247 251 261 255 251 252 264 285 289
189 193 190 186 187 194 192 188 202 214 219 224 226 228 244 253 255 255 248 235 233 240 246 255 263 256 263 251 265 271 264 256 247 239 246 253 258 250 243 252 247 247 256
189 192 190 184 189 186 179 195 208 206 215 229 237 234 244 261 267 265 264 245 239 245 245 243 248 261 257 253 246 257 259 261 259 249 243 253 253 250 236 244 252 259 262
197 198 194 185 185 185 193 205 211 205 228 238 247 247 250 269 275 274 269 229 242 256 256 251 249 255 269 275 257 256 270 272 271 261 257 262 267 270 267 254 249 261 280
206 200 190 184 185 192 200 202 197 199 221 232 254 257 255 265 279 282 275 225 243 261 267 262 262 267 278 281 255 242 262 270 269 276 273 275 273 273 275 252 230 248 269
199 182 180 181 188 190 186 187 189 197 214 240 261 269 265 268 281 286 280 246 232 251 263 265 260 280 287 287 279 252 260 273 262 256 264 267 268 262 261 248 229 231 246
177 180 185 186 188 178 174 189 191 186 212 248 267 282 279 278 280 287 286 278 267 246 257 257 260 281 285 287 284 276 283 288 268 260 266 270 268 264 257 250 244 240 241
180 189 193 190 191 183 182 193 203 203 214 244 252 271 283 283 286 291 291 289 283 266 257 267 275 282 288 283 277 284 287 277 263 262 264 265 258 257 257 259 258 254 254
189 198 192 189 199 200 197 195 199 209 221 235 243 256 271 277 273 274 273 280 285 281 275 278 286 288 283 278 283 287 271 253 257 255 260 265 265 261 258 253 262 267 269
196 199 199 199 200 207 213 215 216 219 215 224 232 233 248 266 263 268 273 264 255 253 272 266 272 281 273 272 272 267 262 265 267 257 261 270 272 269 268 257 253 260 262
199 201 200 200 204 207 215 253 249 240 250 251 249 247 253 260 277 280 281 282 282 280 277 252 256 256 259 263 266 267 259 258 257 257 260 262 268 270 276 270 256 258 266
203 204 200 201 201 204 208 216 259 283 267 258 256 260 264 274 278 280 282 283 282 281 260 252 256 256 256 255 255 257 261 258 255 256 256 257 261 267 270 271 267 264 265
206 208 203 204 203 205 209 216 224 243 274 280 273 275 278 278 278 279 282 287 280 267 245 252 258 258 257 258 257 259 262 263 256 256 256 255 257 264 268 267 263 262 266
204 206 205 203 205 209 212 215 224 234 247 266 281 285 282 284 278 275 278 251 252 257 252 253 256 257 257 257 259 257 257 260 259 256 257 258 255 260 265 264 262 266 267
211 217 210 201 206 212 212 218 228 234 244 250 255 260 270 272 263 267 255 245 249 255 255 254 254 253 253 254 255 256 259 260 258 253 252 254 252 254 262 264 261 262 262
206 212 216 210 209 212 215 223 229 233 241 249 252 256 263 258 255 258 257 251 250 255 256 255 255 253 251 252 253 254 256 258 254 252 252 251 250 252 255 257 258 258 261
200 202 205 211 213 214 224 224 228 236 244 254 264 268 272 264 252 258 260 260 254 251 251 254 256 251 247 247 250 254 257 257 252 251 252 251 248 250 253 255 255 255 253
197 204 214 219 217 233 242 232 236 240 247 253 259 264 264 257 257 260 261 262 259 259 256 254 257 258 253 250 248 248 253 255 252 249 251 252 249 251 251 251 250 250 248
200 206 216 225 228 228 234 240 243 248 252 254 256 259 260 259 262 265 264 263 264 264 262 259 258 260 261 261 258 252 251 254 251 248 246 249 250 249 251 249 246 244 245
205 212 222 227 231 237 243 248 251 253 256 259 260 262 263 264 265 266 265 264 265 267 268 266 264 263 262 262 263 263 264 266 264 256 245 244 246 246 246 245 242 242 244
210 217 226 231 233 236 241 247 252 254 255 258 259 258 259 261 264 266 268 267 268 269 271 271 268 268 269 268 265 267 271 271 269 266 259 245 241 242 238 237 235 236 236